KD4PYR Weather Reports


Display with metric or nautical units.
time (UTC)temp
F
wind
direction
speed
MPH
gust
MPH
rain 1hr
in
rain 24hr
in
rain mn
in
humidity
%
barometer
mb
20260502204821 53 301 5.0 14.0 0.00 0.00 0.00 40 1014.3
20260502203840 54 24 7.0 13.0 0.00 0.00 0.00 40 1014.2
20260502202831 55 321 4.0 10.0 0.00 0.00 0.00 42 1014.2
20260502201823 53 330 5.0 15.0 0.00 0.00 0.00 42 1014.4
20260502200817 54 300 8.0 14.0 0.00 0.00 0.00 41 1014.4
20260502195823 52 296 7.0 12.0 0.00 0.00 0.00 43 1014.5
20260502194826 53 329 4.0 11.0 0.00 0.00 0.00 41 1014.5
20260502193821 55 223 6.0 14.0 0.00 0.00 0.00 43 1014.7
20260502192859 55 295 3.0 12.0 0.00 0.00 0.00 43 1014.6
20260502191830 53 304 4.0 14.0 0.00 0.00 0.00 43 1014.7
20260502190821 53 28 5.0 16.0 0.00 0.00 0.00 43 1014.7
20260502185822 53 335 6.0 13.0 0.00 0.00 0.00 43 1014.8
20260502184826 53 227 6.0 13.0 0.00 0.00 0.00 45 1014.8
20260502183818 52 301 9.0 14.0 0.00 0.00 0.00 42 1014.8
20260502182837 52 275 3.0 11.0 0.00 0.00 0.00 48 1014.9
20260502181826 51 289 1.0 11.0 0.00 0.00 0.00 48 1014.9
20260502180817 51 297 4.0 12.0 0.00 0.00 0.00 48 1015.1
20260502163823 53 307 3.0 12.0 0.00 0.00 0.00 53 1015.7
20260502162840 51 296 5.0 11.0 0.00 0.00 0.00 53 1015.8
20260502161831 52 296 3.0 14.0 0.00 0.00 0.00 54 1015.9
20260502160822 51 302 6.0 11.0 0.00 0.00 0.00 57 1015.9
20260502151840 49 338 3.0 10.0 0.00 0.00 0.00 57 1016.2
20260502150829 48 338 4.0 11.0 0.00 0.00 0.00 56 1016.3
20260502122859 41 345 1.0 3.0 0.00 0.00 0.00 77 1015.8
20260502121826 40 350 1.0 2.0 0.00 0.00 0.00 79 1015.6
20260502120846 38 347 1.0 2.0 0.00 0.00 0.00 81 1015.4
20260502115832 38 330 0.0 1.0 0.00 0.00 0.00 82 1015.3
20260502114835 37 329 0.0 0.0 0.00 0.00 0.00 82 1015.0
20260502113828 37 329 0.0 0.0 0.00 0.00 0.00 82 1015.0
20260502112817 37 329 0.0 0.0 0.00 0.00 0.00 82 1015.0
20260502111855 36 329 0.0 0.0 0.00 0.00 0.00 81 1015.0
20260502110824 36 329 0.0 1.0 0.00 0.00 0.00 81 1015.1
20260502105827 36 327 0.0 2.0 0.00 0.00 0.00 82 1015.1
20260502104828 36 314 0.0 2.0 0.00 0.00 0.00 82 1015.2
20260502103820 36 314 0.0 0.0 0.00 0.00 0.00 82 1015.1
20260502102838 36 314 0.0 0.0 0.00 0.00 0.00 82 1015.1
20260502101836 36 314 0.0 1.0 0.00 0.00 0.00 82 1015.1
20260502100832 36 314 0.0 0.0 0.00 0.00 0.00 82 1015.0
20260502090835 37 314 0.0 0.0 0.00 0.00 0.00 82 1015.1
20260502070845 38 314 0.0 0.0 0.00 0.00 0.00 80 1014.8
20260502065823 39 314 0.0 0.0 0.00 0.00 0.00 80 1014.7
20260502064844 39 314 0.0 0.0 0.00 0.00 0.00 80 1014.6
20260502063821 39 314 0.0 2.0 0.00 0.00 0.00 80 1014.8
20260502062839 39 305 0.0 2.0 0.00 0.00 0.00 81 1015.2
20260502061834 38 305 0.0 0.0 0.00 0.00 0.00 82 1015.2
20260502060823 39 305 0.0 0.0 0.00 0.00 0.00 81 1015.3
20260502055826 39 305 0.0 0.0 0.00 0.00 0.00 81 1015.3
20260502054828 39 305 0.0 0.0 0.00 0.00 0.00 81 1015.5
20260502053821 40 305 0.0 0.0 0.00 0.00 0.00 81 1015.4
20260502052840 40 305 0.0 0.0 0.00 0.00 0.00 81 1015.4
20260502051832 40 305 0.0 0.0 0.00 0.00 0.00 80 1015.2
20260502050821 40 305 0.0 0.0 0.00 0.00 0.00 79 1015.2
20260502045821 41 305 0.0 0.0 0.00 0.00 0.00 79 1015.3
20260502044825 42 305 0.0 0.0 0.00 0.00 0.00 78 1015.4
20260502043817 42 305 0.0 0.0 0.00 0.00 0.00 77 1015.4
20260502042856 43 305 0.0 1.0 0.00 0.00 0.00 77 1015.5
20260502041829 43 305 0.0 2.0 0.00 0.00 0.00 76 1015.5
20260502040819 43 305 0.0 2.0 0.00 0.00 0.00 76 1015.5
20260502035822 43 305 0.0 1.0 0.00 0.00 0.00 76 1015.5
20260502034854 42 305 0.0 1.0 0.00 0.00 0.00 78 1015.4
20260502033852 41 305 0.0 0.0 0.00 0.00 0.00 79 1015.3
20260502032823 42 305 0.0 0.0 0.00 0.00 0.00 79 1015.4
20260502031815 43 305 0.0 0.0 0.00 0.00 0.00 78 1015.3
20260502030833 43 305 0.0 0.0 0.00 0.00 0.00 77 1015.4
20260502025817 44 305 0.0 0.0 0.00 0.00 0.00 76 1015.4
20260502024838 45 305 0.0 0.0 0.00 0.00 0.00 72 1015.4
20260502023830 45 305 0.0 2.0 0.00 0.00 0.00 70 1015.5
20260502022822 45 305 0.0 2.0 0.00 0.00 0.00 72 1015.3
20260502021815 43 305 1.0 2.0 0.00 0.00 0.00 75 1015.1
20260502020854 44 305 0.0 0.0 0.00 0.00 0.00 77 1014.9
20260502015816 44 305 0.0 0.0 0.00 0.00 0.00 75 1014.8
20260502014820 45 305 0.0 0.0 0.00 0.00 0.00 74 1014.7
20260502013838 45 305 0.0 0.0 0.00 0.00 0.00 74 1014.5
20260502012830 46 305 0.0 0.0 0.00 0.00 0.00 68 1014.2
20260502011828 46 305 0.0 0.0 0.00 0.00 0.00 69 1014.2
20260502010819 47 305 0.0 0.0 0.00 0.00 0.00 67 1014.4
20260502005824 48 305 0.0 1.0 0.00 0.00 0.00 66 1014.1
20260502004827 49 305 0.0 2.0 0.00 0.00 0.00 60 1013.8
20260502003821 49 304 0.0 3.0 0.00 0.00 0.00 58 1013.9
20260502002840 49 292 2.0 4.0 0.00 0.00 0.00 57 1013.3
20260502001830 50 5 1.0 7.0 0.00 0.00 0.00 58 1012.9
20260502000823 50 315 2.0 6.0 0.00 0.00 0.00 57 1012.7
20260501235826 51 19 3.0 9.0 0.00 0.00 0.00 56 1012.7
20260501234828 51 336 3.0 6.0 0.00 0.00 0.00 56 1012.8
20260501233821 51 333 1.0 7.0 0.00 0.00 0.00 57 1012.9
20260501232840 52 315 1.0 9.0 0.00 0.00 0.00 56 1013.0
20260501231831 52 330 2.0 8.0 0.00 0.00 0.00 56 1013.1
20260501230822 51 309 3.0 9.0 0.00 0.00 0.00 58 1012.9
20260501225825 52 17 3.0 8.0 0.00 0.00 0.00 58 1013.0
20260501224828 52 304 3.0 9.0 0.00 0.00 0.00 56 1013.0
20260501223848 52 321 4.0 11.0 0.00 0.00 0.00 57 1013.0
20260501222845 52 308 6.0 10.0 0.00 0.00 0.00 57 1012.9
20260501221815 53 269 6.0 12.0 0.00 0.00 0.00 58 1013.0
20260501220833 53 300 6.0 12.0 0.00 0.00 0.00 57 1012.9
20260501215818 53 315 4.0 11.0 0.00 0.00 0.00 58 1012.8
20260501214838 54 5 4.0 13.0 0.00 0.00 0.00 57 1013.0
20260501213829 54 271 6.0 12.0 0.00 0.00 0.00 55 1012.8
20260501212820 54 285 6.0 12.0 0.00 0.00 0.00 52 1012.6
20260501211840 54 13 4.0 15.0 0.00 0.00 0.00 53 1012.5
20260501210832 54 271 5.0 16.0 0.00 0.00 0.00 56 1012.6
20260501205816 55 346 5.0 14.0 0.00 0.00 0.00 55 1012.5